TOURFACTS.DK  
Stats and Facts from Tour de France.

Tour de France 2019 starts in 324 days
  Riders   Stages   Teams   Summits   Yearly  


 
Search by year

After 2018 - Stage 21:
 15000 starters.
  5165 different riders.
  638 teams.
  2253 stages.
  456 restdays.
  442940.60 km.
  5684 abandonnees.


Top 3
GC
Geraint Thomas83:17:13
Tom Dumoulin83:19:04
Christopher Froome83:19:37
Climb
Julian Alaphilippe170 pt.
Warren Barguil91 pt.
Rafal Majka76 pt.
Sprint
Peter Sagan477 pt.
Alexander Kristoff246 pt.
Arnaud Démare203 pt.
Youth
Pierre-Roger Latou..83:39:26
Egan Bernal83:45:05
Guillaume Martin84:01:31
Facts from Tour de France 1975
  |   Stages.  |   Stage winners.  |   Days in yellow  |   Average speed.  |   Route.  |   Teams.  |   All riders.  |   Rookies.  |  

  |   Withdrawls.  |   GC.  |   Polka  |   Green  |   White  |   Summits. (In tour)  |   Miscellaneous.  |  

Stage 13 on 10 - 07 - 1975
         Owning:    Eddy Merckx    
Pick a stage:  Pro 1a 1b 2 3 4 5 6 7 8 9a 9b 10 11 12 13 14 15 16 17 18 19 20 21 22
  AlbiSuper-Lioran | Dist: 260.00 km.
Cat: 3Côte de SalguesBELLucien Van Impe8 points 
Cat: 4Côte de Chaudes AiguesBELLucien Van Impe3 points 
Cat: 2Col de Prat-de-Bouc/Plomb du CanTalBELEddy Merckx15 points 
Cat: 3Super Lioran - MuratBELMichel Pollentier8 points 

Average speed for all riders in stage:  28,314 km./hr.
    Place:Name:Team:Time:Km/h:
1
BELMichel PollentierBELCarpenter Confortluxe-Flandria08:58:44  +  00:00:00=28,957 
2
BELEddy MerckxITAMolteni08:59:09  +  00:00:25=28,934 
3
BELLucien Van ImpeFRAGitane-Campagnolo08:59:10  +  00:00:26=28,934 
44 NEDJoop ZoetemelkFRAGan-Mercier-Hutchinson08:59:10  +  00:00:26=28,934 
55 ITAFrancesco MoserITAFilotex08:59:10  +  00:00:26=28,934 
66 FRABernard ThevenetFRAPeugeot-BP-Michelin08:59:10  +  00:00:26=28,934 
77 SUIJosef FuchsITAFilotex08:59:13  +  00:00:29=28,931 
88 ITAFelice GimondiITABianchi-Campagnolo08:59:14  +  00:00:30=28,930 
99 NEDHennie KuiperNLDFrisol-G.B.C.08:59:18  +  00:00:34=28,926 
1010 NEDFedor Iwan Den HertogNLDFrisol-G.B.C.08:59:20  +  00:00:36=28,925 
1111 ESPPedro TorresESPSuper Ser08:59:32  +  00:00:48=28,914 
1212 ESPVicente LopezESPKas-Kaskol08:59:34  +  00:00:50=28,912 
1313 ESPMariano MartinezFRAGitane-Campagnolo08:59:34  +  00:00:50=28,912 
1414 FRAGeorges TalbourdetFRAGan-Mercier-Hutchinson08:59:39  +  00:00:55=28,908 
1515 FRARaymond MartinFRAGitane-Campagnolo08:59:39  +  00:00:55=28,908 
1616 FRAJean-Pierre DanguillaumeFRAPeugeot-BP-Michelin08:59:39  +  00:00:55=28,908 
1717 ESPFrancisco GaldosESPKas-Kaskol08:59:39  +  00:00:55=28,908 
1818 ESPAndré RomeroFRAJobo-Wolber08:59:39  +  00:00:55=28,908 
1919 FRARaymond PoulidorFRAGan-Mercier-Hutchinson08:59:39  +  00:00:55=28,908 
2020 ITARoberto PoggialiITAFilotex09:00:17  +  00:01:33=28,874 
2121 BELTony HoubrechtsITABianchi-Campagnolo09:00:31  +  00:01:47=28,861 
2222 BELJos De SchoenmaeckerITAMolteni09:00:34  +  00:01:50=28,859 
2323 BELEduard JanssensITAMolteni09:00:34  +  00:01:50=28,859 
2424 COLMartìn RodríguezITABianchi-Campagnolo09:00:47  +  00:02:03=28,847 
2525 FRARaymond DelisleFRAPeugeot-BP-Michelin09:01:03  +  00:02:19=28,833 
2626 ITAFabrizio FabbriITABianchi-Campagnolo09:01:32  +  00:02:48=28,807 
2727 FRAYves HézardFRAGan-Mercier-Hutchinson09:01:37  +  00:02:53=28,803 
2828 ESPJosé PesarrodonaESPKas-Kaskol09:01:42  +  00:02:58=28,798 
2929 ITAMauro SimonettiITAFilotex09:01:49  +  00:03:05=28,792 
3030 ESPAntonio MenendezESPKas-Kaskol09:03:36  +  00:04:52=28,698 
3131 FRARégis OvionFRAPeugeot-BP-Michelin09:03:46  +  00:05:02=28,689 
3232 FRAJosé CatieauFRAPeugeot-BP-Michelin09:03:49  +  00:05:05=28,686 
3333 ESPSantiago LazcanoESPSuper Ser09:03:49  +  00:05:05=28,686 
3434 ITARenato MarchettiITAFilotex09:05:30  +  00:06:46=28,598 
3535 BELAlbert Van VlierbergheBELMiko-De Gribaldy09:06:06  +  00:07:22=28,566 
3636 ITAGiacinto SantambrogioITABianchi-Campagnolo09:06:17  +  00:07:33=28,557 
3737 FRAFrancis CampanerPRTSporting-Sottomayor09:06:36  +  00:07:52=28,540 
3838 ESPJosé-Luis ViejoESPSuper Ser09:06:43  +  00:07:59=28,534 
3939 ESPJosé CasasESPSuper Ser09:06:45  +  00:08:01=28,532 
4040 BELJoseph SpruytITAMolteni09:06:47  +  00:08:03=28,530 
4141 FRARobert MintkiewiczFRAGitane-Campagnolo09:06:49  +  00:08:05=28,529 
4242 ITAArnaldo CaverzasiITAFilotex09:06:49  +  00:08:05=28,529 
4343 BELHerman Van SpringelBELCarpenter Confortluxe-Flandria09:06:52  +  00:08:08=28,526 
4444 BELLudo DelcroixITAMolteni09:06:52  +  00:08:08=28,526 
4545 FRAFerdinand JulienPRTSporting-Sottomayor09:06:52  +  00:08:08=28,526 
4646 ESPCarlos MeleroESPKas-Kaskol09:06:57  +  00:08:13=28,522 
4747 ITAGiovanni CavalcantiITABianchi-Campagnolo09:06:59  +  00:08:15=28,520 
4848 FRAPatrick PerretBELMiko-De Gribaldy09:07:17  +  00:08:33=28,504 
4949 ITAPierino GavazziITAJollyceramica09:08:35  +  00:09:51=28,437 
5050 ITASigfrido FontanelliITAFilotex09:08:58  +  00:10:14=28,417 
5151 BELWilly TeirlinckFRAGitane-Campagnolo09:09:02  +  00:10:18=28,414 
5252 PORJoaquim AgostinhoPRTSporting-Sottomayor09:09:02  +  00:10:18=28,414 
5353 FRAJean-Claude MisacFRAGan-Mercier-Hutchinson09:10:17  +  00:11:33=28,349 
5454 ESPLuis BalagueESPSuper Ser09:10:29  +  00:11:45=28,339 
5555 FRAJean-Pierre GenetFRAGan-Mercier-Hutchinson09:14:08  +  00:15:24=28,152 
5656 ITAAlessio AntoniniITAJollyceramica09:14:08  +  00:15:24=28,152 
5757 FRARichard PianaroFRAJobo-Wolber09:14:08  +  00:15:24=28,152 
5858 FRAHubert MathisBELMiko-De Gribaldy09:14:08  +  00:15:24=28,152 
5959 BELRoger LoyschBELMiko-De Gribaldy09:14:08  +  00:15:24=28,152 
6060 BELMarc DemeyerBELCarpenter Confortluxe-Flandria09:14:08  +  00:15:24=28,152 
6161 BELRonald De WitteBELCarpenter Confortluxe-Flandria09:14:08  +  00:15:24=28,152 
6262 BELFrans MintjensITAMolteni09:14:08  +  00:15:24=28,152 
6363 BELJosé De CauwerNLDFrisol-G.B.C.09:14:08  +  00:15:24=28,152 
6464 ESPJosé GrandeESPKas-Kaskol09:14:08  +  00:15:24=28,152 
6565 FRABernard BourreauFRAPeugeot-BP-Michelin09:14:08  +  00:15:24=28,152 
6666 BELJoseph HuysmansITAMolteni09:14:08  +  00:15:24=28,152 
6767 PORFernando FerreiraPRTSporting-Sottomayor09:14:08  +  00:15:24=28,152 
6868 FRASylvain VasseurESPSuper Ser09:14:08  +  00:15:24=28,152 
6969 FRAJoël MillardFRAJobo-Wolber09:14:08  +  00:15:24=28,152 
7070 BELWalter GodefrootBELCarpenter Confortluxe-Flandria09:14:08  +  00:15:24=28,152 
7171 FRAAlain SantyFRAGitane-Campagnolo09:14:08  +  00:15:24=28,152 
7272 DENOle RitterITAFilotex09:14:08  +  00:15:24=28,152 
7373 ITAPietro DallaiITAFilotex09:14:08  +  00:15:24=28,152 
7474 BELMarc LievensITAMolteni09:14:31  +  00:15:47=28,133 
7575 FRAMichel PerinFRAGan-Mercier-Hutchinson09:14:31  +  00:15:47=28,133 
7676 BELKarel RottiersITAMolteni09:15:14  +  00:16:30=28,096 
7777 FRACharly RouxelFRAPeugeot-BP-Michelin09:15:17  +  00:16:33=28,094 
7878 FRAJacques BoulasFRAJobo-Wolber09:15:32  +  00:16:48=28,081 
7979 BELRik Van LindenITABianchi-Campagnolo09:21:15  +  00:22:31=27,795 
8080 FRAAndré MolletPRTSporting-Sottomayor09:21:15  +  00:22:31=27,795 
8181 MARAntoine GutierrezBELMiko-De Gribaldy09:21:15  +  00:22:31=27,795 
8282 NEDGerben KarstensFRAGitane-Campagnolo09:21:15  +  00:22:31=27,795 
8383 PORJosé AmaroPRTSporting-Sottomayor09:21:15  +  00:22:31=27,795 
8484 FRAJoel HauvieuxFRAJobo-Wolber09:21:15  +  00:22:31=27,795 
8585 ITADonato GiulianiITAJollyceramica09:21:15  +  00:22:31=27,795 
8686 NEDGerard VianenFRAGan-Mercier-Hutchinson09:21:15  +  00:22:31=27,795 
8787 ITASimone FraccaroITABianchi-Campagnolo09:21:15  +  00:22:31=27,795 
8888 NEDGerrie KnetemannFRAGan-Mercier-Hutchinson09:21:15  +  00:22:31=27,795 
8989 FRARoger LegeayFRAJobo-Wolber09:21:15  +  00:22:31=27,795 
9090 FRASerge ParsaniITABianchi-Campagnolo09:21:15  +  00:22:31=27,795 
9191 ENGBarry HobanFRAGan-Mercier-Hutchinson09:21:15  +  00:22:31=27,795 
9292 FRAGuy LeleuFRAGitane-Campagnolo09:21:15  +  00:22:31=27,795 
9393 BELAndre DoyenBELMiko-De Gribaldy09:21:15  +  00:22:31=27,795 
9494 FRAMaurice Le GuillouxFRAGitane-Campagnolo09:21:15  +  00:22:31=27,795 
9595 FRAClaude MagniFRAJobo-Wolber09:21:15  +  00:22:31=27,795 
9696 ITALuigi CastellettiITABianchi-Campagnolo09:21:15  +  00:22:31=27,795 
9797 NEDGerard KamperNLDFrisol-G.B.C.09:21:15  +  00:22:31=27,795 
9898 AUSDonald AllanNLDFrisol-G.B.C.09:21:15  +  00:22:31=27,795 
9999 BELHerman BeysensITAMolteni09:21:15  +  00:22:31=27,795 
100100 NORKnut KnudsenITAJollyceramica09:21:15  +  00:22:31=27,795 
101101 BELRené DillenFRAGitane-Campagnolo09:21:15  +  00:22:31=27,795 
102102 BELFrans Van VlierbergheBELMiko-De Gribaldy09:21:15  +  00:22:31=27,795 
103103 ITASandro QuintarelliITAJollyceramica09:21:15  +  00:22:31=27,795 
104104 FRAGerard MoneyronBELCarpenter Confortluxe-Flandria09:21:15  +  00:22:31=27,795 
105105 FRAGuy SibilleFRAPeugeot-BP-Michelin09:21:15  +  00:22:31=27,795 
106106 FRAPatrick BeonFRAPeugeot-BP-Michelin09:21:15  +  00:22:31=27,795 
107107 NEDHenk PrinsenNLDFrisol-G.B.C.09:21:15  +  00:22:31=27,795 
108108 FRARegis DelepineBELCarpenter Confortluxe-Flandria09:21:15  +  00:22:31=27,795 
109109 FRAAlain CiganaFRAJobo-Wolber09:21:57  +  00:23:13=27,760 
110110 NEDBen KokenNLDFrisol-G.B.C.09:33:17  +  00:34:33=27,212 

Withdrawls: 8
 
Rider
Team
Reason
33  ITAGiovanni BattaglinITAJollyceramicaDid not start
35  ITAGiovanni Dalla BonaITAJollyceramicaDid not finish
41  ESPLuis OcañaESPSuper SerDid not start
42  ESPJulian AndianoESPSuper SerDid not finish
46  BELEddy PeelmanESPSuper SerDid not finish
47  BELRoger RosiersESPSuper SerDid not finish
128  NEDCees PriemNLDFrisol-G.B.C.Did not finish
134  FRAAndré CorbeauFRAJobo-WolberDid not finish
Todays birthdays.

1883  Albert Niepçeron
1911  Camille Leroy
1914  Gaston Grimbert
1940  José Momeñe
1956  Régis Clère
1957  Alfonso Dal Pian
1960  Samuel Cabrera
1967  Christophe Capelle
1976  Dimitiri Fofonov
1980  Giampaolo Caruso
1983  Jean-Marc Marino




Visits: